| time (UTC) | temp F | wind direction | speed MPH | gust MPH | rain 1hr in | rain 24hr in | rain mn in | humidity % | barometer mb |
| 20260902005404 | 68 | 85 | 2.0 | 8.0 | 0.00 | 0.56 | 0.56 | 93 | 1014.0 |
| 20260902003905 | 69 | 91 | 3.0 | 10.0 | 0.00 | 0.56 | 0.56 | 93 | 1013.8 |
| 20260902003404 | 69 | 71 | 2.0 | 12.0 | 0.01 | 0.57 | 0.56 | 93 | 1013.6 |
| 20260902002904 | 69 | 83 | 3.0 | 10.0 | 0.03 | 0.57 | 0.56 | 93 | 1013.8 |
| 20260902002405 | 69 | 64 | 2.0 | 8.0 | 0.08 | 0.57 | 0.56 | 93 | 1013.8 |
| 20260902001905 | 70 | 55 | 2.0 | 9.0 | 0.10 | 0.57 | 0.56 | 93 | 1013.9 |
| 20260902001404 | 70 | 92 | 5.0 | 12.0 | 0.17 | 0.57 | 0.56 | 93 | 1013.7 |
| 20260902000904 | 70 | 104 | 2.0 | 8.0 | 0.18 | 0.57 | 0.56 | 93 | 1013.5 |
| 20260902000406 | 71 | 92 | 1.0 | 9.0 | 0.18 | 0.57 | 0.56 | 93 | 1013.6 |
| 20260901235905 | 71 | 81 | 3.0 | 10.0 | 0.19 | 0.57 | 0.56 | 93 | 1013.5 |
| 20260901235404 | 71 | 68 | 2.0 | 12.0 | 0.20 | 0.57 | 0.56 | 93 | 1013.5 |
| 20260901234405 | 72 | 83 | 2.0 | 9.0 | 0.20 | 0.57 | 0.56 | 93 | 1013.5 |
| 20260901233905 | 72 | 78 | 2.0 | 6.0 | 0.20 | 0.57 | 0.56 | 93 | 1013.6 |
| 20260901233404 | 73 | 69 | 4.0 | 10.0 | 0.22 | 0.56 | 0.55 | 93 | 1013.4 |
| 20260901232904 | 73 | 74 | 3.0 | 9.0 | 0.22 | 0.54 | 0.53 | 93 | 1013.2 |
| 20260901232404 | 73 | 87 | 2.0 | 7.0 | 0.17 | 0.49 | 0.48 | 93 | 1013.2 |
| 20260901231904 | 74 | 75 | 3.0 | 9.0 | 0.15 | 0.47 | 0.46 | 92 | 1013.5 |
| 20260901230904 | 74 | 34 | 1.0 | 5.0 | 0.07 | 0.39 | 0.38 | 92 | 1013.6 |
| 20260901230406 | 74 | 345 | 1.0 | 3.0 | 0.07 | 0.39 | 0.38 | 92 | 1013.0 |
| 20260901225904 | 75 | 48 | 1.0 | 8.0 | 0.06 | 0.38 | 0.37 | 91 | 1012.6 |
| 20260901225405 | 75 | 85 | 3.0 | 8.0 | 0.05 | 0.37 | 0.36 | 91 | 1012.7 |
| 20260901224404 | 75 | 107 | 1.0 | 5.0 | 0.05 | 0.37 | 0.36 | 91 | 1012.7 |
| 20260901223405 | 76 | 112 | 1.0 | 6.0 | 0.05 | 0.34 | 0.33 | 90 | 1012.5 |
| 20260901222905 | 76 | 103 | 1.0 | 3.0 | 0.03 | 0.32 | 0.31 | 90 | 1012.5 |
| 20260901222404 | 76 | 99 | 3.0 | 7.0 | 0.03 | 0.32 | 0.31 | 90 | 1012.4 |
| 20260901221904 | 76 | 107 | 3.0 | 8.0 | 0.03 | 0.32 | 0.31 | 90 | 1012.3 |
| 20260901221405 | 77 | 82 | 1.0 | 3.0 | 0.03 | 0.32 | 0.31 | 90 | 1012.2 |
| 20260901220905 | 77 | 98 | 1.0 | 3.0 | 0.03 | 0.32 | 0.31 | 90 | 1012.2 |
| 20260901215904 | 77 | 74 | 0.0 | 0.0 | 0.03 | 0.32 | 0.31 | 90 | 1012.3 |
| 20260901215405 | 77 | 74 | 1.0 | 3.0 | 0.03 | 0.32 | 0.31 | 89 | 1012.4 |
| 20260901214906 | 77 | 74 | 1.0 | 7.0 | 0.03 | 0.32 | 0.31 | 89 | 1012.3 |
| 20260901213905 | 78 | 87 | 1.0 | 3.0 | 0.02 | 0.31 | 0.30 | 87 | 1012.4 |
| 20260901213405 | 78 | 98 | 2.0 | 7.0 | 0.00 | 0.29 | 0.28 | 85 | 1012.3 |
| 20260901212904 | 79 | 97 | 2.0 | 8.0 | 0.00 | 0.29 | 0.28 | 84 | 1012.3 |
| 20260901211904 | 80 | 94 | 1.0 | 8.0 | 0.00 | 0.29 | 0.28 | 83 | 1012.4 |
| 20260901211405 | 79 | 52 | 0.0 | 3.0 | 0.00 | 0.29 | 0.28 | 83 | 1012.4 |
| 20260901210904 | 80 | 30 | 1.0 | 7.0 | 0.00 | 0.29 | 0.28 | 83 | 1012.3 |
| 20260901210405 | 80 | 44 | 0.0 | 3.0 | 0.00 | 0.29 | 0.28 | 84 | 1012.2 |
| 20260901205904 | 80 | 123 | 1.0 | 6.0 | 0.00 | 0.29 | 0.28 | 83 | 1012.2 |
| 20260901205404 | 80 | 103 | 3.0 | 6.0 | 0.00 | 0.29 | 0.28 | 84 | 1012.2 |
| 20260901204905 | 79 | 44 | 0.0 | 3.0 | 0.00 | 0.29 | 0.28 | 84 | 1012.3 |
| 20260901204403 | 79 | 38 | 0.0 | 2.0 | 0.00 | 0.29 | 0.28 | 84 | 1012.2 |
| 20260901203904 | 80 | 54 | 1.0 | 3.0 | 0.00 | 0.29 | 0.28 | 83 | 1012.2 |
| 20260901202904 | 80 | 105 | 0.0 | 1.0 | 0.00 | 0.29 | 0.28 | 83 | 1012.4 |
| 20260901202403 | 80 | 101 | 0.0 | 2.0 | 0.00 | 0.29 | 0.28 | 83 | 1012.4 |
| 20260901201904 | 80 | 102 | 0.0 | 3.0 | 0.00 | 0.29 | 0.28 | 83 | 1012.3 |
| 20260901201403 | 80 | 105 | 0.0 | 0.0 | 0.00 | 0.29 | 0.28 | 83 | 1012.3 |
| 20260901200904 | 80 | 104 | 0.0 | 3.0 | 0.00 | 0.29 | 0.28 | 84 | 1012.2 |
| 20260901200404 | 80 | 107 | 0.0 | 0.0 | 0.00 | 0.29 | 0.28 | 83 | 1012.3 |
| 20260901195904 | 80 | 107 | 1.0 | 3.0 | 0.00 | 0.29 | 0.28 | 83 | 1012.3 |
| 20260901195404 | 80 | 112 | 3.0 | 7.0 | 0.00 | 0.29 | 0.28 | 83 | 1012.3 |
| 20260901194404 | 81 | 191 | 0.0 | 0.0 | 0.00 | 0.29 | 0.28 | 83 | 1012.4 |
| 20260901193404 | 80 | 250 | 0.0 | 0.0 | 0.00 | 0.29 | 0.28 | 84 | 1012.5 |
| 20260901192904 | 80 | 263 | 0.0 | 0.0 | 0.00 | 0.29 | 0.28 | 87 | 1012.5 |
| 20260901192404 | 79 | 263 | 0.0 | 0.0 | 0.00 | 0.29 | 0.28 | 86 | 1012.6 |
| 20260901191904 | 79 | 263 | 0.0 | 0.0 | 0.00 | 0.29 | 0.28 | 86 | 1012.7 |
| 20260901191404 | 78 | 263 | 0.0 | 0.0 | 0.00 | 0.29 | 0.28 | 85 | 1012.7 |
| 20260901190904 | 79 | 263 | 0.0 | 0.0 | 0.00 | 0.29 | 0.28 | 86 | 1012.7 |
| 20260901190404 | 79 | 263 | 0.0 | 0.0 | 0.00 | 0.29 | 0.28 | 86 | 1012.7 |
| 20260901185405 | 79 | 263 | 0.0 | 0.0 | 0.00 | 0.29 | 0.28 | 86 | 1012.7 |
| 20260901184404 | 79 | 263 | 0.0 | 0.0 | 0.00 | 0.29 | 0.28 | 85 | 1012.5 |
| 20260901183404 | 79 | 259 | 0.0 | 0.0 | 0.00 | 0.29 | 0.28 | 83 | 1012.6 |
| 20260901182904 | 79 | 259 | 0.0 | 0.0 | 0.00 | 0.29 | 0.28 | 86 | 1012.6 |
| 20260901182404 | 78 | 181 | 0.0 | 0.0 | 0.01 | 0.29 | 0.28 | 84 | 1012.7 |
| 20260901181404 | 80 | 232 | 0.0 | 0.0 | 0.02 | 0.29 | 0.28 | 88 | 1012.8 |
| 20260901180904 | 78 | 225 | 0.0 | 0.0 | 0.03 | 0.29 | 0.28 | 90 | 1012.8 |
| 20260901180405 | 78 | 225 | 0.0 | 0.0 | 0.03 | 0.29 | 0.28 | 90 | 1012.7 |
| 20260901175905 | 77 | 223 | 0.0 | 0.0 | 0.03 | 0.29 | 0.28 | 88 | 1012.7 |
| 20260901175404 | 78 | 236 | 0.0 | 0.0 | 0.03 | 0.29 | 0.28 | 91 | 1012.6 |
| 20260901174405 | 78 | 207 | 0.0 | 0.0 | 0.03 | 0.29 | 0.28 | 94 | 1012.6 |
| 20260901173905 | 76 | 207 | 0.0 | 0.0 | 0.03 | 0.29 | 0.28 | 93 | 1012.5 |
| 20260901173404 | 76 | 211 | 1.0 | 6.0 | 0.03 | 0.29 | 0.28 | 94 | 1012.4 |
| 20260901172905 | 75 | 205 | 1.0 | 8.0 | 0.03 | 0.29 | 0.28 | 95 | 1012.4 |
| 20260901172404 | 74 | 182 | 2.0 | 6.0 | 0.02 | 0.28 | 0.27 | 94 | 1012.6 |
| 20260901171905 | 74 | 181 | 1.0 | 5.0 | 0.02 | 0.28 | 0.27 | 94 | 1013.1 |
| 20260901170904 | 74 | 221 | 0.0 | 0.0 | 0.00 | 0.26 | 0.25 | 94 | 1013.5 |
| 20260901170405 | 74 | 221 | 0.0 | 0.0 | 0.00 | 0.26 | 0.25 | 94 | 1013.6 |
| 20260901165904 | 74 | 221 | 0.0 | 3.0 | 0.00 | 0.26 | 0.25 | 94 | 1013.6 |
| 20260901165405 | 74 | 227 | 1.0 | 5.0 | 0.00 | 0.26 | 0.25 | 94 | 1013.7 |
| 20260901164905 | 74 | 227 | 1.0 | 5.0 | 0.01 | 0.26 | 0.25 | 94 | 1013.6 |
| 20260901164405 | 74 | 228 | 2.0 | 7.0 | 0.01 | 0.26 | 0.25 | 94 | 1013.4 |
| 20260901163906 | 74 | 204 | 2.0 | 8.0 | 0.01 | 0.26 | 0.25 | 94 | 1013.4 |
| 20260901163404 | 74 | 205 | 5.0 | 12.0 | 0.01 | 0.26 | 0.25 | 94 | 1013.3 |
| 20260901162904 | 74 | 178 | 5.0 | 12.0 | 0.02 | 0.26 | 0.25 | 94 | 1013.1 |
| 20260901162405 | 73 | 155 | 3.0 | 8.0 | 0.03 | 0.26 | 0.25 | 94 | 1013.1 |
| 20260901161905 | 73 | 174 | 1.0 | 6.0 | 0.04 | 0.26 | 0.25 | 95 | 1013.2 |
| 20260901161404 | 73 | 165 | 2.0 | 6.0 | 0.05 | 0.26 | 0.25 | 94 | 1013.5 |
| 20260901160904 | 73 | 136 | 1.0 | 5.0 | 0.07 | 0.26 | 0.25 | 94 | 1013.7 |
| 20260901160405 | 73 | 185 | 0.0 | 1.0 | 0.08 | 0.26 | 0.25 | 94 | 1013.8 |
| 20260901155905 | 73 | 188 | 1.0 | 3.0 | 0.08 | 0.26 | 0.25 | 94 | 1014.0 |
| 20260901155405 | 72 | 191 | 1.0 | 5.0 | 0.09 | 0.26 | 0.25 | 94 | 1014.1 |
| 20260901154905 | 72 | 154 | 1.0 | 3.0 | 0.09 | 0.25 | 0.24 | 94 | 1014.1 |
| 20260901154405 | 72 | 237 | 0.0 | 0.0 | 0.09 | 0.25 | 0.24 | 94 | 1014.5 |
| 20260901153905 | 72 | 255 | 0.0 | 0.0 | 0.09 | 0.25 | 0.24 | 94 | 1014.7 |
| 20260901153405 | 72 | 256 | 0.0 | 0.0 | 0.09 | 0.25 | 0.24 | 94 | 1014.8 |
| 20260901152905 | 72 | 255 | 0.0 | 0.0 | 0.08 | 0.24 | 0.23 | 94 | 1014.8 |
| 20260901152404 | 72 | 255 | 0.0 | 0.0 | 0.07 | 0.23 | 0.22 | 94 | 1014.9 |
| 20260901151404 | 72 | 255 | 0.0 | 0.0 | 0.05 | 0.21 | 0.20 | 94 | 1014.6 |
| 20260901150904 | 72 | 255 | 0.0 | 0.0 | 0.03 | 0.19 | 0.18 | 93 | 1014.6 |
| 20260901150403 | 72 | 255 | 0.0 | 0.0 | 0.02 | 0.18 | 0.17 | 93 | 1014.7 |
| 20260901145904 | 72 | 255 | 0.0 | 0.0 | 0.02 | 0.18 | 0.17 | 93 | 1014.8 |
| 20260901145404 | 72 | 255 | 0.0 | 0.0 | 0.01 | 0.17 | 0.16 | 93 | 1014.8 |
| 20260901144904 | 73 | 255 | 0.0 | 0.0 | 0.00 | 0.16 | 0.15 | 93 | 1014.8 |
| 20260901144403 | 73 | 255 | 0.0 | 0.0 | 0.00 | 0.16 | 0.15 | 93 | 1014.8 |
| 20260901143904 | 73 | 255 | 0.0 | 0.0 | 0.00 | 0.16 | 0.15 | 93 | 1014.7 |
| 20260901143404 | 73 | 255 | 0.0 | 0.0 | 0.00 | 0.16 | 0.15 | 94 | 1014.7 |
| 20260901142904 | 73 | 255 | 0.0 | 0.0 | 0.00 | 0.16 | 0.15 | 93 | 1014.6 |
| 20260901141903 | 73 | 255 | 0.0 | 0.0 | 0.00 | 0.16 | 0.15 | 93 | 1014.5 |
| 20260901141404 | 73 | 255 | 0.0 | 0.0 | 0.00 | 0.16 | 0.15 | 93 | 1014.4 |
| 20260901140904 | 73 | 255 | 0.0 | 0.0 | 0.00 | 0.16 | 0.15 | 93 | 1014.4 |
| 20260901140405 | 73 | 255 | 0.0 | 0.0 | 0.00 | 0.16 | 0.15 | 94 | 1014.4 |
| 20260901135906 | 73 | 255 | 0.0 | 0.0 | 0.00 | 0.16 | 0.15 | 93 | 1014.3 |
| 20260901135404 | 73 | 255 | 0.0 | 0.0 | 0.00 | 0.16 | 0.15 | 94 | 1014.1 |
| 20260901134904 | 72 | 255 | 0.0 | 0.0 | 0.00 | 0.16 | 0.15 | 94 | 1014.1 |
| 20260901134404 | 72 | 255 | 0.0 | 0.0 | 0.00 | 0.16 | 0.15 | 94 | 1014.2 |
| 20260901133906 | 72 | 255 | 0.0 | 0.0 | 0.00 | 0.16 | 0.15 | 94 | 1014.3 |
| 20260901133404 | 72 | 255 | 0.0 | 0.0 | 0.00 | 0.16 | 0.15 | 94 | 1014.4 |
| 20260901132904 | 72 | 255 | 0.0 | 0.0 | 0.00 | 0.16 | 0.15 | 94 | 1014.4 |
| 20260901132404 | 72 | 255 | 0.0 | 0.0 | 0.00 | 0.16 | 0.15 | 94 | 1014.3 |
| 20260901131904 | 72 | 255 | 0.0 | 0.0 | 0.00 | 0.16 | 0.15 | 94 | 1014.4 |
| 20260901130905 | 71 | 258 | 0.0 | 0.0 | 0.00 | 0.16 | 0.15 | 94 | 1014.6 |
| 20260901130404 | 71 | 258 | 0.0 | 0.0 | 0.00 | 0.16 | 0.15 | 95 | 1014.5 |
| 20260901125904 | 71 | 258 | 0.0 | 3.0 | 0.00 | 0.16 | 0.15 | 95 | 1014.4 |
| 20260901125404 | 71 | 232 | 0.0 | 3.0 | 0.00 | 0.16 | 0.15 | 94 | 1014.2 |
| 20260901124904 | 71 | 227 | 0.0 | 2.0 | 0.00 | 0.16 | 0.15 | 94 | 1014.3 |
| 20260901124405 | 71 | 230 | 0.0 | 0.0 | 0.00 | 0.16 | 0.15 | 95 | 1014.4 |
| 20260901123904 | 71 | 230 | 1.0 | 3.0 | 0.01 | 0.16 | 0.15 | 94 | 1014.4 |
| 20260901123404 | 71 | 224 | 0.0 | 3.0 | 0.01 | 0.16 | 0.15 | 95 | 1014.3 |
| 20260901122904 | 71 | 178 | 1.0 | 3.0 | 0.02 | 0.16 | 0.15 | 95 | 1014.1 |
| 20260901122404 | 71 | 173 | 2.0 | 5.0 | 0.02 | 0.16 | 0.15 | 95 | 1014.3 |
| 20260901121904 | 71 | 178 | 1.0 | 5.0 | 0.02 | 0.16 | 0.15 | 95 | 1014.3 |
| 20260901121404 | 71 | 174 | 0.0 | 5.0 | 0.02 | 0.16 | 0.15 | 95 | 1014.1 |
| 20260901120404 | 71 | 211 | 0.0 | 0.0 | 0.02 | 0.16 | 0.15 | 95 | 1014.1 |
| 20260901115904 | 71 | 211 | 0.0 | 0.0 | 0.02 | 0.16 | 0.15 | 95 | 1014.3 |
| 20260901115404 | 70 | 233 | 0.0 | 0.0 | 0.02 | 0.16 | 0.15 | 95 | 1014.3 |
| 20260901114906 | 70 | 236 | 0.0 | 0.0 | 0.02 | 0.16 | 0.15 | 95 | 1014.4 |
| 20260901114404 | 70 | 236 | 0.0 | 0.0 | 0.02 | 0.16 | 0.15 | 95 | 1014.4 |
| 20260901113905 | 70 | 236 | 0.0 | 0.0 | 0.01 | 0.15 | 0.14 | 95 | 1014.8 |
| 20260901112904 | 70 | 236 | 0.0 | 2.0 | 0.00 | 0.14 | 0.13 | 95 | 1014.5 |
| 20260901112405 | 70 | 341 | 0.0 | 0.0 | 0.00 | 0.14 | 0.13 | 95 | 1014.5 |
| 20260901111905 | 70 | 340 | 0.0 | 0.0 | 0.00 | 0.14 | 0.13 | 95 | 1014.6 |
| 20260901111404 | 70 | 340 | 0.0 | 0.0 | 0.00 | 0.14 | 0.13 | 95 | 1014.7 |
| 20260901110904 | 70 | 340 | 0.0 | 0.0 | 0.00 | 0.14 | 0.13 | 95 | 1014.8 |
| 20260901110406 | 70 | 340 | 0.0 | 0.0 | 0.00 | 0.14 | 0.13 | 95 | 1014.7 |
| 20260901105905 | 70 | 340 | 0.0 | 0.0 | 0.00 | 0.14 | 0.13 | 95 | 1014.7 |
| 20260901104904 | 70 | 340 | 0.0 | 0.0 | 0.00 | 0.14 | 0.13 | 95 | 1014.5 |
| 20260901104404 | 70 | 340 | 0.0 | 0.0 | 0.00 | 0.14 | 0.13 | 95 | 1014.6 |
| 20260901103404 | 69 | 340 | 0.0 | 0.0 | 0.00 | 0.14 | 0.13 | 95 | 1014.6 |
| 20260901102906 | 69 | 340 | 0.0 | 0.0 | 0.00 | 0.14 | 0.13 | 95 | 1014.6 |
| 20260901102404 | 69 | 340 | 0.0 | 0.0 | 0.00 | 0.14 | 0.13 | 95 | 1014.5 |
| 20260901101906 | 69 | 26 | 0.0 | 0.0 | 0.00 | 0.14 | 0.13 | 95 | 1014.3 |
| 20260901101404 | 69 | 26 | 0.0 | 0.0 | 0.00 | 0.14 | 0.13 | 95 | 1014.2 |
| 20260901100905 | 69 | 26 | 0.0 | 0.0 | 0.00 | 0.14 | 0.13 | 95 | 1014.2 |
| 20260901100405 | 69 | 26 | 0.0 | 0.0 | 0.00 | 0.14 | 0.13 | 95 | 1014.3 |
| 20260901095905 | 69 | 26 | 0.0 | 0.0 | 0.00 | 0.14 | 0.13 | 95 | 1014.4 |
| 20260901095405 | 69 | 26 | 0.0 | 0.0 | 0.00 | 0.14 | 0.13 | 95 | 1014.4 |
| 20260901094904 | 69 | 26 | 0.0 | 0.0 | 0.00 | 0.14 | 0.13 | 95 | 1014.4 |
| 20260901094405 | 69 | 26 | 0.0 | 0.0 | 0.00 | 0.14 | 0.13 | 95 | 1014.3 |
| 20260901093906 | 69 | 26 | 0.0 | 0.0 | 0.00 | 0.14 | 0.13 | 95 | 1014.3 |
| 20260901093405 | 69 | 26 | 0.0 | 0.0 | 0.00 | 0.14 | 0.13 | 95 | 1014.3 |
| 20260901092905 | 69 | 26 | 0.0 | 0.0 | 0.00 | 0.14 | 0.13 | 95 | 1014.3 |
| 20260901092403 | 69 | 26 | 0.0 | 0.0 | 0.00 | 0.14 | 0.13 | 94 | 1014.4 |
| 20260901091905 | 69 | 26 | 0.0 | 0.0 | 0.00 | 0.14 | 0.13 | 95 | 1014.4 |
| 20260901091403 | 69 | 26 | 0.0 | 0.0 | 0.00 | 0.14 | 0.13 | 94 | 1014.4 |
| 20260901090904 | 69 | 26 | 0.0 | 0.0 | 0.00 | 0.14 | 0.13 | 94 | 1014.4 |
| 20260901085403 | 69 | 26 | 0.0 | 0.0 | 0.00 | 0.14 | 0.13 | 94 | 1014.7 |
| 20260901084903 | 69 | 24 | 0.0 | 0.0 | 0.01 | 0.14 | 0.13 | 94 | 1014.8 |
| 20260901084405 | 69 | 24 | 0.0 | 0.0 | 0.01 | 0.14 | 0.13 | 94 | 1014.8 |
| 20260901083903 | 69 | 24 | 0.0 | 0.0 | 0.01 | 0.14 | 0.13 | 94 | 1014.7 |
| 20260901082904 | 69 | 24 | 0.0 | 0.0 | 0.01 | 0.14 | 0.13 | 94 | 1014.7 |
| 20260901082405 | 70 | 24 | 0.0 | 0.0 | 0.01 | 0.14 | 0.13 | 94 | 1014.7 |
| 20260901081904 | 69 | 24 | 0.0 | 0.0 | 0.01 | 0.14 | 0.13 | 94 | 1014.7 |
| 20260901081404 | 69 | 24 | 0.0 | 0.0 | 0.01 | 0.14 | 0.13 | 94 | 1014.7 |
| 20260901080404 | 69 | 24 | 0.0 | 0.0 | 0.01 | 0.14 | 0.13 | 94 | 1014.8 |
| 20260901075905 | 69 | 24 | 0.0 | 0.0 | 0.01 | 0.14 | 0.13 | 94 | 1014.8 |
| 20260901075405 | 69 | 24 | 0.0 | 0.0 | 0.01 | 0.14 | 0.13 | 94 | 1014.9 |
| 20260901074904 | 69 | 24 | 0.0 | 0.0 | 0.00 | 0.13 | 0.12 | 94 | 1015.0 |
| 20260901073904 | 69 | 24 | 0.0 | 0.0 | 0.00 | 0.13 | 0.12 | 94 | 1015.0 |
| 20260901073404 | 69 | 24 | 0.0 | 0.0 | 0.00 | 0.13 | 0.12 | 94 | 1015.1 |
| 20260901072904 | 69 | 24 | 0.0 | 0.0 | 0.00 | 0.13 | 0.12 | 94 | 1014.9 |
| 20260901072405 | 69 | 24 | 0.0 | 0.0 | 0.00 | 0.13 | 0.12 | 93 | 1015.0 |
| 20260901071404 | 69 | 24 | 0.0 | 1.0 | 0.00 | 0.13 | 0.12 | 93 | 1015.3 |
| 20260901070904 | 69 | 317 | 0.0 | 1.0 | 0.00 | 0.13 | 0.12 | 93 | 1015.2 |
| 20260901070404 | 69 | 273 | 0.0 | 0.0 | 0.00 | 0.13 | 0.12 | 93 | 1015.2 |
| 20260901065904 | 69 | 273 | 0.0 | 0.0 | 0.00 | 0.13 | 0.12 | 93 | 1015.2 |
| 20260901065404 | 70 | 232 | 1.0 | 5.0 | 0.00 | 0.13 | 0.12 | 93 | 1015.1 |
| 20260901064904 | 70 | 205 | 0.0 | 0.0 | 0.00 | 0.13 | 0.12 | 93 | 1015.1 |
| 20260901064404 | 70 | 205 | 0.0 | 0.0 | 0.00 | 0.13 | 0.12 | 93 | 1015.1 |
| 20260901063404 | 70 | 198 | 0.0 | 0.0 | 0.00 | 0.13 | 0.12 | 92 | 1015.2 |
| 20260901062905 | 70 | 201 | 0.0 | 0.0 | 0.00 | 0.13 | 0.12 | 93 | 1015.3 |
| 20260901061904 | 70 | 190 | 0.0 | 0.0 | 0.00 | 0.13 | 0.12 | 92 | 1015.3 |
| 20260901061404 | 70 | 174 | 0.0 | 1.0 | 0.00 | 0.13 | 0.12 | 92 | 1015.3 |
| 20260901060904 | 70 | 185 | 0.0 | 0.0 | 0.01 | 0.13 | 0.12 | 92 | 1015.5 |
| 20260901060405 | 70 | 191 | 0.0 | 0.0 | 0.01 | 0.13 | 0.12 | 92 | 1015.5 |
| 20260901055906 | 69 | 191 | 0.0 | 0.0 | 0.02 | 0.13 | 0.12 | 92 | 1015.6 |
| 20260901055404 | 69 | 190 | 1.0 | 5.0 | 0.02 | 0.13 | 0.12 | 92 | 1015.5 |
| 20260901054905 | 69 | 192 | 0.0 | 3.0 | 0.02 | 0.13 | 0.12 | 92 | 1015.7 |
| 20260901054405 | 69 | 184 | 0.0 | 0.0 | 0.03 | 0.13 | 0.12 | 92 | 1015.8 |
| 20260901053904 | 69 | 184 | 0.0 | 3.0 | 0.05 | 0.13 | 0.12 | 92 | 1015.7 |
| 20260901052905 | 69 | 158 | 1.0 | 3.0 | 0.11 | 0.13 | 0.12 | 92 | 1015.7 |
| 20260901051405 | 70 | 174 | 1.0 | 3.0 | 0.12 | 0.13 | 0.12 | 92 | 1016.0 |
| 20260901050905 | 70 | 171 | 0.0 | 0.0 | 0.11 | 0.12 | 0.11 | 92 | 1016.1 |
| 20260901050404 | 70 | 171 | 0.0 | 0.0 | 0.11 | 0.12 | 0.11 | 91 | 1016.1 |
| 20260901045905 | 70 | 171 | 1.0 | 3.0 | 0.09 | 0.11 | 0.10 | 91 | 1016.0 |
| 20260901045404 | 70 | 169 | 1.0 | 3.0 | 0.09 | 0.11 | 0.10 | 91 | 1016.1 |
| 20260901044906 | 70 | 170 | 1.0 | 3.0 | 0.09 | 0.11 | 0.10 | 91 | 1016.0 |
| 20260901044405 | 70 | 174 | 0.0 | 0.0 | 0.08 | 0.10 | 0.09 | 90 | 1016.2 |
| 20260901043904 | 70 | 174 | 0.0 | 0.0 | 0.06 | 0.08 | 0.07 | 89 | 1016.2 |
| 20260901043405 | 70 | 174 | 0.0 | 0.0 | 0.02 | 0.04 | 0.03 | 89 | 1016.1 |
| 20260901042905 | 70 | 174 | 0.0 | 0.0 | 0.00 | 0.02 | 0.01 | 88 | 1016.1 |
| 20260901042405 | 71 | 178 | 0.0 | 2.0 | 0.00 | 0.02 | 0.01 | 88 | 1016.0 |
| 20260901041904 | 71 | 163 | 1.0 | 3.0 | 0.00 | 0.02 | 0.01 | 88 | 1016.0 |
| 20260901041405 | 71 | 164 | 0.0 | 3.0 | 0.00 | 0.01 | 0.00 | 88 | 1016.1 |
| 20260901040905 | 71 | 182 | 1.0 | 3.0 | 0.00 | 0.01 | 0.00 | 88 | 1016.1 |
| 20260901035905 | 71 | 170 | 1.0 | 3.0 | 0.00 | 0.01 | 0.01 | 87 | 1016.1 |
| 20260901035405 | 71 | 174 | 2.0 | 3.0 | 0.00 | 0.01 | 0.01 | 87 | 1016.2 |
| 20260901034905 | 71 | 185 | 1.0 | 9.0 | 0.00 | 0.01 | 0.01 | 87 | 1016.2 |
| 20260901034405 | 71 | 162 | 2.0 | 6.0 | 0.00 | 0.01 | 0.01 | 86 | 1016.2 |
| 20260901033905 | 71 | 191 | 2.0 | 3.0 | 0.00 | 0.01 | 0.01 | 86 | 1016.2 |
| 20260901033405 | 71 | 183 | 1.0 | 3.0 | 0.00 | 0.01 | 0.01 | 86 | 1016.3 |
| 20260901032905 | 71 | 171 | 1.0 | 3.0 | 0.00 | 0.01 | 0.01 | 86 | 1016.3 |
| 20260901032404 | 71 | 163 | 1.0 | 3.0 | 0.00 | 0.01 | 0.01 | 85 | 1016.4 |
| 20260901031903 | 71 | 186 | 0.0 | 3.0 | 0.00 | 0.01 | 0.01 | 85 | 1016.3 |
| 20260901031404 | 71 | 177 | 2.0 | 5.0 | 0.00 | 0.01 | 0.01 | 85 | 1016.4 |
| 20260901030404 | 71 | 177 | 2.0 | 8.0 | 0.00 | 0.01 | 0.01 | 85 | 1016.4 |
| 20260901025904 | 71 | 180 | 1.0 | 5.0 | 0.00 | 0.01 | 0.01 | 85 | 1016.5 |
| 20260901025404 | 71 | 193 | 1.0 | 3.0 | 0.00 | 0.01 | 0.01 | 84 | 1016.5 |
| 20260901024404 | 71 | 174 | 1.0 | 3.0 | 0.00 | 0.01 | 0.01 | 84 | 1016.7 |
| 20260901023905 | 71 | 189 | 2.0 | 3.0 | 0.00 | 0.01 | 0.01 | 84 | 1016.8 |
| 20260901022904 | 71 | 183 | 2.0 | 6.0 | 0.00 | 0.01 | 0.01 | 84 | 1016.9 |
| 20260901022404 | 71 | 203 | 1.0 | 3.0 | 0.00 | 0.01 | 0.01 | 84 | 1017.0 |
| 20260901021904 | 71 | 177 | 0.0 | 3.0 | 0.00 | 0.01 | 0.01 | 84 | 1016.9 |
| 20260901021405 | 71 | 177 | 1.0 | 5.0 | 0.00 | 0.01 | 0.01 | 84 | 1016.9 |
| 20260901020404 | 71 | 201 | 0.0 | 3.0 | 0.00 | 0.01 | 0.01 | 84 | 1016.9 |
| 20260901015904 | 71 | 197 | 0.0 | 3.0 | 0.00 | 0.01 | 0.01 | 84 | 1016.9 |
| 20260901015404 | 72 | 183 | 2.0 | 5.0 | 0.00 | 0.01 | 0.01 | 84 | 1016.9 |
| 20260901014404 | 72 | 195 | 2.0 | 6.0 | 0.00 | 0.02 | 0.01 | 84 | 1017.0 |
| 20260901013904 | 72 | 195 | 1.0 | 3.0 | 0.00 | 0.02 | 0.01 | 84 | 1017.0 |
| 20260901013405 | 72 | 195 | 0.0 | 2.0 | 0.01 | 0.03 | 0.01 | 84 | 1017.0 |
| 20260901012905 | 72 | 179 | 1.0 | 5.0 | 0.01 | 0.03 | 0.01 | 84 | 1017.0 |
| 20260901012405 | 72 | 183 | 1.0 | 3.0 | 0.01 | 0.03 | 0.01 | 84 | 1017.0 |
| 20260901011905 | 72 | 175 | 1.0 | 3.0 | 0.01 | 0.03 | 0.01 | 84 | 1016.9 |
| 20260901011404 | 72 | 191 | 1.0 | 3.0 | 0.01 | 0.03 | 0.01 | 85 | 1016.9 |
| 20260901010904 | 72 | 190 | 1.0 | 3.0 | 0.01 | 0.04 | 0.01 | 84 | 1016.9 |
| 20260901010404 | 72 | 193 | 0.0 | 2.0 | 0.01 | 0.04 | 0.01 | 84 | 1016.8 |